Wind_Speed
8 7 6 5 4 4 4 3 6 8 10 12 11 12 12 9 7 6 7 7 7 7 6 6 6 5 4 3 2 1 1 1 1 2 2 2 2 2 2 2 3 3 3 3 3 2 2 2 2
8 7 6 5 4 5 5 5 8 11 12 14 14 13 12 10 7 6 8 8 9 8 8 7 7 6 5 4 3 2 1 1 1 1 2 2 2 2 2 3 3 3 3 3 3 3 2 2 2
8 7 5 3 3 5 5 7 10 14 16 17 16 14 12 9 8 8 8 9 10 9 9 9 8 7 6 5 5 4 3 2 2 2 2 2 2 2 3 3 3 3 4 4 3 3 3 3 3
7 6 4 3 4 5 6 9 12 16 19 19 18 17 13 10 10 10 10 10 10 10 11 10 9 8 8 7 6 5 4 3 3 3 3 3 3 3 3 3 4 4 4 4 3 3 3 3 3
6 5 3 4 6 6 6 10 14 18 20 21 21 19 16 12 9 11 11 10 10 11 12 12 11 10 9 8 8 7 5 4 4 4 4 4 4 4 4 4 4 4 4 4 4 4 4 4 4
5 4 3 5 6 7 8 11 15 19 22 23 22 20 14 13 11 10 11 11 11 12 13 13 12 11 10 9 9 8 6 5 5 5 5 5 5 5 5 5 5 5 5 5 5 5 5 5 4
5 5 7 7 6 7 10 13 17 20 22 23 22 19 16 14 13 11 11 11 13 14 14 15 13 13 11 10 10 9 8 7 6 6 5 5 6 6 6 5 5 5 5 6 6 6 5 5 5
6 8 9 8 7 8 11 15 18 20 22 23 22 19 16 15 13 12 13 12 13 15 16 16 15 14 12 11 10 9 9 8 7 7 6 6 6 6 6 6 6 5 6 6 6 6 6 6 5
8 9 9 8 7 8 12 16 19 21 22 23 21 18 16 14 12 13 13 15 14 15 15 16 16 15 13 12 11 10 9 9 8 8 7 7 7 7 7 6 6 6 6 6 6 6 6 6 6
8 9 9 8 8 9 12 16 20 22 23 21 20 17 16 15 14 14 13 14 15 15 16 17 17 16 15 13 12 12 10 9 8 8 8 8 7 7 7 7 6 6 6 6 6 6 6 6 6
9 9 9 9 8 9 13 16 20 22 21 20 19 18 16 15 15 14 14 14 15 16 17 18 18 17 16 15 14 13 11 10 9 9 9 8 7 7 6 6 6 6 5 6 6 6 6 6 5
11 10 9 8 8 10 12 15 17 19 18 19 20 19 18 16 16 16 15 15 16 17 18 20 19 18 18 17 16 15 12 11 10 10 9 8 7 6 6 5 5 5 5 5 5 6 6 5 4
11 9 8 8 8 10 12 14 16 17 17 18 20 20 18 17 17 16 15 16 18 18 19 20 20 20 18 18 17 15 13 12 11 11 10 8 7 7 6 5 5 4 4 4 4 5 4 4 4
10 8 7 6 8 10 12 14 16 17 18 18 19 19 17 16 15 14 16 16 17 19 21 21 20 21 20 19 17 15 14 12 11 11 10 9 8 7 6 6 5 4 3 3 3 3 3 3 3
9 7 7 6 8 9 12 13 15 17 19 19 19 18 17 15 15 14 14 17 17 19 20 21 20 20 21 19 18 16 15 13 13 11 10 10 9 8 7 6 5 4 3 2 2 2 2 3 3
9 7 6 7 9 11 13 14 16 18 20 19 18 18 16 14 15 14 14 14 16 18 19 20 20 19 19 19 19 18 17 14 13 12 12 10 9 8 7 6 5 4 3 2 1 2 2 2 2
9 7 7 8 9 12 14 15 17 18 19 20 18 18 16 13 13 12 12 12 14 17 18 19 20 20 19 20 20 20 17 15 15 13 12 10 9 8 7 7 6 4 3 2 1 0 0 1 1
8 7 7 10 12 14 15 16 17 17 18 19 19 18 15 12 11 11 11 11 13 17 19 20 21 20 19 19 19 18 16 15 15 14 13 11 10 9 8 8 7 5 4 2 2 1 1 1 2
10 8 8 11 13 15 16 17 16 15 16 18 17 17 14 11 9 9 8 9 11 14 17 18 19 20 19 18 19 17 15 15 15 15 13 12 11 10 9 8 7 6 5 4 3 2 1 1 2
10 8 9 12 14 16 17 16 15 14 15 16 15 14 12 10 8 6 6 8 10 11 14 16 17 18 17 18 18 17 16 15 16 15 14 13 12 11 10 8 8 7 6 5 3 3 2 2 2
10 9 11 13 15 17 17 16 15 14 15 13 12 11 11 9 6 4 5 6 7 9 13 14 15 17 17 17 18 17 17 16 16 15 14 13 12 11 10 9 8 7 6 5 4 3 2 2 2
10 10 12 14 17 18 18 18 15 15 12 11 9 9 9 9 7 4 3 3 5 8 11 12 14 15 17 16 16 17 18 18 17 15 15 14 12 12 11 10 9 8 6 5 4 3 3 2 1
12 11 13 14 16 18 18 18 13 12 10 8 7 7 7 8 8 6 3 1 4 8 10 12 13 15 16 16 16 17 19 19 17 16 15 14 13 13 11 11 10 8 7 6 5 4 3 1 0
12 13 15 16 16 17 17 16 13 11 8 4 5 5 6 7 7 6 4 2 4 8 10 11 13 15 15 16 17 17 19 18 17 16 14 14 14 13 12 11 10 9 8 7 6 4 4 3 2
13 15 16 17 17 17 16 14 10 9 7 4 4 5 5 6 6 7 5 4 5 7 9 11 13 14 15 16 16 17 18 17 17 16 15 14 14 13 13 11 10 10 9 8 7 6 6 5 5
15 16 19 19 17 16 14 13 10 9 6 4 3 3 4 5 5 6 6 5 5 6 8 9 11 13 15 15 15 16 16 16 16 15 15 14 14 14 13 12 11 10 10 9 8 8 8 8 8
16 19 19 20 19 18 16 13 11 9 6 5 3 1 2 3 4 5 6 5 4 6 7 9 9 12 13 14 15 15 15 16 16 15 15 15 15 15 14 13 12 12 11 11 11 11 10 10 10
19 19 21 22 20 19 16 14 12 9 6 4 2 1 1 2 3 3 4 4 5 5 6 8 9 10 12 13 14 14 14 15 15 15 15 15 15 15 15 14 14 14 13 13 13 13 13 13 13
20 20 21 22 22 20 18 14 12 10 7 6 3 1 1 1 1 1 1 2 4 4 5 7 8 9 11 12 13 13 14 15 15 15 15 15 15 15 16 16 16 16 16 16 16 16 16 16 16
23 23 23 22 21 20 19 16 14 12 10 8 5 3 3 2 1 1 2 2 3 4 5 6 8 9 10 11 12 13 14 15 15 16 16 16 17 17 18 18 18 19 19 19 19 19 19 19 19
Wind_Direction
332 331 334 334 329 342 327 332 342 344 338 324 314 309 309 298 286 264 242 220 211 209 204 199 193 187 181 181 181 191 262 319 356 5 7 9 13 18 16 14 10 8 5 2 0 1 5 12 26
327 326 327 332 321 322 325 337 341 326 323 319 316 309 302 294 283 254 247 227 215 212 207 203 201 197 194 196 201 207 237 270 301 332 340 341 345 351 354 355 354 353 350 346 344 345 344 344 350
323 322 319 327 307 301 322 338 334 324 322 320 314 308 297 288 273 259 242 225 216 213 210 207 204 201 200 201 208 215 227 248 271 289 299 308 314 323 328 335 336 338 339 339 337 334 332 328 327
319 318 310 292 280 296 329 336 326 321 321 321 312 304 297 288 271 260 240 225 218 216 213 210 205 204 205 207 212 219 226 244 262 272 278 286 292 306 313 317 319 321 328 334 336 329 327 324 318
315 309 296 275 278 298 320 322 320 321 317 315 313 307 299 291 273 255 242 230 220 215 212 211 209 209 208 210 215 221 231 245 261 272 281 286 290 295 303 308 308 307 312 318 321 319 316 316 315
306 297 259 270 281 296 307 316 316 315 312 312 312 310 305 296 280 257 245 231 221 215 213 213 214 214 212 213 216 222 232 245 260 268 275 283 291 293 297 302 299 299 302 309 312 310 305 307 309
283 262 255 268 280 305 312 312 310 307 310 313 314 307 300 301 287 273 253 231 225 222 219 215 213 215 216 217 217 223 231 244 255 258 265 279 288 295 298 299 298 298 300 305 309 308 303 302 306
266 250 255 266 284 308 309 305 306 308 309 313 315 312 304 302 289 270 256 237 226 222 221 217 214 215 219 220 220 224 231 241 248 254 265 278 285 292 297 298 297 297 301 303 304 305 301 297 301
261 247 255 266 280 296 300 301 306 310 312 314 315 312 308 301 289 277 261 246 231 224 225 221 215 215 220 223 223 225 231 238 245 256 266 276 281 284 291 291 295 295 297 301 300 301 304 299 300
254 242 252 267 280 291 291 297 305 309 313 315 315 312 305 300 287 278 261 245 232 226 225 222 217 218 221 223 224 226 230 238 247 254 261 271 275 279 285 286 290 294 294 298 297 298 301 304 302
248 242 256 268 282 291 291 297 302 306 310 314 312 310 303 297 289 276 262 247 232 225 222 218 218 219 218 222 224 226 231 240 247 250 255 263 265 273 278 283 286 290 294 299 301 303 302 307 303
244 239 251 268 279 287 294 302 308 313 311 313 312 310 301 299 288 277 262 245 237 229 220 219 221 220 219 221 223 225 229 237 244 245 249 256 258 265 266 269 276 281 289 294 300 307 306 311 308
250 246 253 265 282 289 300 308 314 318 316 315 316 314 308 299 295 281 262 247 236 231 222 222 224 223 219 218 221 224 227 232 236 236 240 244 249 250 252 258 268 279 285 293 304 311 304 314 311
260 258 262 276 295 302 307 316 323 328 325 323 323 318 311 306 295 278 266 247 234 231 227 225 227 227 221 218 218 221 223 226 230 232 234 235 236 239 242 247 260 268 264 280 306 310 304 305 300
259 263 269 280 305 312 316 325 330 334 335 331 327 324 315 309 301 286 268 246 234 229 227 229 232 229 221 219 218 218 220 224 227 228 225 226 228 227 229 234 239 241 244 266 296 305 304 304 299
253 262 280 306 315 318 322 328 331 337 337 333 326 322 317 307 300 287 273 253 231 225 227 225 227 222 218 220 219 218 218 220 221 221 223 223 221 220 221 219 223 230 239 259 288 297 305 310 307
252 265 295 319 320 317 323 331 335 337 336 332 327 325 315 307 299 286 270 253 234 225 226 222 222 219 217 218 214 214 216 218 221 221 217 211 210 212 209 207 210 209 211 223 229 304 4 337 338
246 270 299 316 322 321 325 328 330 333 332 331 331 331 324 307 294 282 267 252 242 229 223 221 219 217 214 216 212 210 214 217 217 214 210 205 203 202 199 200 200 200 198 183 168 144 97 34 20
246 270 297 309 315 317 319 319 321 327 330 331 331 334 329 317 294 281 266 249 243 222 213 215 216 213 212 209 206 205 210 212 210 207 201 199 199 197 196 196 193 194 190 180 175 157 136 74 42
246 270 289 299 306 309 310 309 314 317 318 323 327 334 335 324 308 282 259 252 235 219 207 213 215 207 206 202 203 206 205 205 202 197 196 196 194 193 194 192 188 188 187 182 169 150 135 106 71
242 268 282 288 293 297 300 300 306 312 313 320 328 334 339 340 337 303 281 265 234 213 207 206 208 206 203 198 201 204 198 197 195 193 194 192 190 191 192 193 189 184 180 175 166 154 146 131 92
242 259 274 281 290 292 295 300 301 301 305 319 330 334 341 352 3 354 318 286 232 211 209 206 201 199 195 194 195 196 196 196 193 194 190 189 187 189 191 191 191 190 186 182 175 167 158 146 106
246 257 269 278 288 292 295 299 299 294 293 312 338 344 356 4 7 5 2 273 202 195 191 191 191 191 192 192 191 194 194 195 195 191 188 189 190 191 193 191 191 192 194 194 189 182 186 193 204
244 255 262 269 280 290 299 303 302 296 305 323 355 5 13 15 12 15 33 99 156 167 173 184 182 184 185 186 188 188 190 191 191 188 188 189 190 192 194 193 194 199 203 205 208 215 227 239 258
233 250 260 264 273 288 301 303 302 298 302 324 9 30 31 31 28 28 45 87 124 146 155 165 172 177 179 181 181 180 184 186 187 187 189 191 193 198 203 202 203 208 211 216 224 234 242 255 266
229 245 259 270 278 288 300 302 298 301 299 312 349 24 41 49 47 41 50 78 114 140 146 154 166 174 176 175 175 177 182 186 188 189 193 197 201 206 207 209 211 215 221 229 237 244 251 261 270
236 241 252 265 272 281 289 294 296 299 287 293 301 352 45 60 56 53 60 87 115 136 147 156 162 170 175 180 182 184 189 193 196 197 201 202 206 210 211 215 219 224 231 238 244 250 257 264 272
242 245 247 257 266 276 282 288 293 290 293 296 284 308 29 69 70 67 71 92 120 139 156 163 167 175 183 185 188 188 192 197 202 206 208 210 214 216 218 221 226 233 241 247 250 254 260 267 273
238 244 248 255 260 271 281 289 293 283 283 277 267 259 217 91 90 99 102 124 139 148 164 177 181 187 190 192 193 197 202 207 210 213 216 220 222 224 225 228 234 241 247 251 254 258 263 268 272
240 244 249 253 256 263 275 286 291 286 284 275 270 256 237 245 237 204 204 205 199 186 177 180 188 193 197 200 205 210 213 216 218 220 225 228 230 232 234 238 243 247 251 254 258 263 267 271 274
Height
5904 5903 5902 5902 5901 5900 5898 5896 5895 5894 5893 5893 5891 5891 5892 5894 5896 5897 5894 5893 5894 5894 5895 5896 5897 5898 5899 5900 5900 5901 5902 5902 5902 5902 5902 5901 5901 5900 5900 5899 5898 5897 5897 5896 5896 5895 5895 5894 5894
5903 5902 5902 5902 5900 5898 5897 5896 5895 5894 5893 5893 5891 5891 5891 5892 5893 5893 5892 5892 5893 5893 5894 5895 5896 5897 5898 5900 5900 5901 5901 5902 5902 5902 5902 5902 5901 5901 5900 5899 5899 5898 5897 5896 5896 5896 5895 5894 5894
5903 5902 5902 5900 5899 5897 5896 5894 5893 5892 5892 5892 5891 5890 5890 5891 5891 5890 5890 5890 5892 5892 5893 5894 5895 5896 5898 5899 5900 5901 5901 5902 5902 5902 5902 5902 5902 5901 5900 5900 5899 5898 5897 5897 5896 5896 5895 5894 5894
5902 5901 5901 5900 5897 5895 5893 5892 5891 5890 5890 5890 5889 5888 5888 5889 5889 5888 5888 5889 5890 5891 5892 5893 5894 5895 5897 5898 5899 5900 5901 5901 5902 5902 5902 5902 5901 5901 5900 5899 5899 5898 5897 5896 5896 5895 5895 5894 5894
5901 5900 5900 5898 5896 5894 5892 5890 5890 5889 5888 5888 5887 5886 5885 5886 5886 5885 5885 5886 5887 5888 5890 5891 5893 5894 5896 5897 5898 5899 5900 5901 5901 5901 5901 5901 5901 5901 5900 5899 5899 5898 5897 5896 5896 5895 5894 5894 5894
5901 5900 5899 5897 5895 5893 5891 5889 5889 5888 5887 5886 5885 5884 5882 5882 5882 5882 5882 5884 5885 5886 5888 5889 5891 5893 5894 5896 5897 5898 5899 5900 5900 5901 5901 5901 5901 5900 5900 5899 5898 5897 5897 5896 5895 5894 5894 5893 5893
5900 5898 5897 5896 5894 5891 5890 5889 5888 5886 5885 5884 5883 5881 5880 5880 5879 5879 5879 5881 5882 5883 5885 5887 5889 5891 5893 5894 5895 5897 5898 5899 5899 5900 5900 5900 5900 5900 5899 5898 5898 5897 5896 5895 5894 5894 5893 5893 5893
5898 5898 5895 5894 5892 5890 5889 5887 5885 5884 5883 5882 5880 5878 5877 5877 5876 5876 5876 5877 5878 5879 5882 5884 5886 5889 5891 5893 5894 5895 5896 5897 5898 5899 5899 5899 5899 5899 5898 5898 5897 5896 5895 5894 5894 5893 5892 5892 5892
5896 5896 5893 5892 5890 5889 5888 5886 5883 5882 5880 5879 5877 5875 5874 5874 5873 5872 5873 5873 5874 5876 5878 5881 5883 5886 5889 5891 5892 5893 5895 5896 5897 5897 5898 5898 5898 5897 5897 5897 5896 5895 5895 5894 5893 5892 5891 5891 5891
5894 5893 5892 5890 5889 5888 5886 5885 5882 5879 5877 5875 5874 5873 5871 5870 5870 5869 5869 5869 5870 5872 5875 5878 5880 5883 5886 5888 5890 5892 5893 5894 5895 5896 5896 5896 5896 5896 5896 5895 5895 5894 5894 5893 5892 5891 5890 5890 5890
5891 5891 5890 5888 5887 5886 5885 5883 5881 5877 5874 5872 5870 5869 5868 5867 5865 5866 5866 5866 5866 5868 5870 5873 5877 5880 5883 5885 5888 5889 5891 5892 5893 5894 5895 5895 5895 5895 5895 5894 5894 5893 5893 5892 5891 5891 5890 5889 5889
5889 5888 5887 5886 5885 5884 5883 5881 5878 5875 5872 5869 5866 5864 5862 5861 5861 5860 5861 5862 5863 5865 5867 5870 5873 5876 5879 5882 5885 5887 5888 5890 5891 5892 5893 5893 5893 5893 5894 5893 5893 5893 5892 5891 5891 5890 5889 5889 5888
5886 5885 5884 5883 5882 5882 5880 5878 5875 5872 5868 5865 5862 5860 5858 5857 5855 5853 5855 5857 5859 5861 5863 5866 5869 5873 5876 5879 5881 5884 5886 5888 5889 5890 5891 5891 5892 5892 5892 5892 5892 5892 5891 5891 5890 5889 5889 5888 5887
5883 5883 5882 5881 5881 5879 5878 5875 5873 5869 5865 5862 5859 5855 5853 5852 5850 5848 5848 5851 5854 5856 5859 5862 5865 5868 5872 5874 5877 5880 5883 5885 5887 5888 5889 5890 5890 5891 5891 5891 5892 5891 5891 5890 5889 5889 5888 5887 5887
5881 5881 5880 5879 5878 5877 5876 5873 5870 5866 5863 5859 5856 5853 5850 5848 5846 5845 5845 5845 5848 5851 5854 5858 5860 5863 5867 5870 5874 5876 5879 5882 5884 5885 5887 5888 5888 5889 5890 5890 5891 5890 5890 5889 5889 5888 5888 5887 5887
5878 5879 5878 5877 5876 5874 5874 5871 5867 5863 5860 5857 5854 5851 5848 5845 5843 5841 5841 5841 5844 5847 5851 5854 5857 5860 5864 5867 5870 5873 5876 5878 5881 5882 5884 5885 5886 5887 5888 5889 5889 5890 5889 5889 5888 5888 5887 5887 5886
5876 5875 5874 5874 5873 5871 5870 5868 5865 5861 5858 5855 5852 5847 5844 5842 5839 5838 5837 5837 5840 5843 5846 5850 5853 5856 5860 5863 5866 5869 5872 5875 5878 5879 5881 5883 5884 5885 5886 5887 5888 5888 5888 5888 5888 5887 5887 5887 5886
5873 5872 5871 5870 5870 5869 5867 5865 5862 5859 5856 5854 5850 5845 5841 5839 5837 5835 5834 5834 5835 5838 5841 5846 5849 5852 5855 5858 5862 5865 5869 5872 5874 5876 5878 5880 5882 5884 5885 5886 5887 5887 5888 5888 5887 5887 5887 5887 5886
5869 5869 5868 5868 5867 5865 5864 5862 5860 5857 5854 5851 5848 5844 5840 5837 5835 5833 5832 5832 5832 5834 5836 5840 5844 5848 5851 5855 5859 5862 5866 5869 5871 5874 5876 5878 5880 5882 5883 5884 5885 5886 5887 5887 5887 5887 5887 5886 5886
5865 5865 5865 5865 5865 5863 5861 5859 5858 5856 5853 5850 5847 5844 5840 5837 5834 5831 5830 5830 5830 5830 5834 5838 5841 5844 5847 5851 5856 5860 5863 5866 5869 5871 5873 5876 5878 5880 5881 5883 5884 5885 5885 5886 5886 5886 5886 5886 5886
5862 5863 5863 5863 5862 5860 5859 5858 5857 5855 5852 5849 5845 5843 5840 5836 5832 5830 5830 5829 5829 5828 5832 5836 5839 5842 5845 5849 5853 5857 5860 5864 5866 5869 5872 5874 5876 5878 5880 5882 5883 5884 5884 5885 5885 5885 5885 5885 5885
5858 5860 5860 5860 5859 5857 5857 5855 5855 5852 5850 5847 5844 5841 5838 5835 5832 5830 5829 5828 5828 5829 5831 5834 5838 5841 5844 5847 5851 5854 5858 5861 5864 5867 5870 5872 5874 5876 5878 5880 5881 5882 5883 5884 5884 5884 5884 5884 5884
5855 5856 5857 5857 5856 5855 5853 5852 5852 5849 5847 5845 5843 5840 5837 5834 5833 5831 5829 5827 5827 5828 5830 5833 5836 5839 5843 5846 5849 5852 5856 5859 5862 5865 5868 5870 5872 5875 5876 5878 5879 5880 5881 5882 5883 5883 5883 5883 5883
5851 5853 5853 5853 5853 5852 5851 5849 5849 5847 5844 5843 5840 5838 5836 5834 5833 5831 5829 5827 5827 5827 5829 5832 5835 5838 5841 5844 5848 5851 5854 5857 5860 5863 5866 5868 5870 5873 5874 5876 5877 5878 5880 5880 5881 5881 5881 5881 5881
5848 5849 5849 5850 5850 5849 5848 5846 5847 5845 5843 5841 5839 5837 5835 5834 5833 5831 5829 5828 5827 5828 5830 5832 5835 5837 5840 5844 5847 5850 5853 5856 5859 5861 5864 5866 5868 5870 5872 5874 5875 5876 5877 5878 5878 5878 5879 5879 5879
5844 5846 5846 5846 5846 5846 5844 5843 5844 5843 5841 5839 5838 5837 5835 5834 5833 5832 5830 5829 5829 5830 5832 5833 5835 5838 5840 5843 5846 5849 5852 5854 5857 5860 5862 5864 5866 5867 5869 5870 5872 5873 5874 5875 5875 5876 5876 5876 5876
5840 5841 5842 5843 5842 5842 5842 5842 5841 5840 5839 5838 5837 5836 5835 5834 5833 5833 5832 5831 5831 5832 5833 5834 5836 5838 5841 5843 5845 5848 5850 5853 5855 5858 5860 5861 5863 5864 5865 5867 5868 5870 5871 5871 5872 5872 5872 5872 5872
5835 5837 5838 5838 5838 5838 5838 5838 5839 5838 5836 5836 5836 5836 5835 5834 5833 5833 5833 5833 5833 5833 5833 5835 5836 5839 5841 5843 5844 5846 5849 5851 5853 5855 5857 5858 5860 5860 5862 5863 5865 5866 5867 5867 5868 5868 5868 5868 5868
5831 5832 5833 5834 5834 5835 5834 5837 5836 5835 5834 5834 5834 5834 5834 5833 5833 5833 5833 5833 5833 5834 5834 5835 5836 5838 5840 5841 5843 5845 5847 5849 5851 5852 5854 5855 5856 5857 5858 5860 5861 5862 5863 5863 5863 5863 5863 5863 5863
5825 5827 5828 5829 5830 5831 5831 5835 5833 5832 5831 5832 5833 5833 5832 5833 5832 5832 5832 5833 5833 5834 5834 5835 5836 5837 5838 5840 5841 5843 5845 5846 5848 5849 5850 5851 5853 5854 5855 5856 5857 5857 5858 5858 5858 5858 5858 5857 5857